This is the latest recevied weather packets stored in our database for station/object N6GPM. If no packets are shown the sender has not sent any weather packets the latest 10 day(s).
| Time | Temp. | Humidity | Pressure | Rain* | Wind** | Luminosity | Snow |
|---|---|---|---|---|---|---|---|
| 1778038886 | 13.89° C | 67% | 1019.3 hPa | 0 mm | - | 0 W/m² | - |
| 1778038583 | 13.89° C | 66% | 1018.8 hPa | 0 mm | - | 0 W/m² | - |
| 1778038280 | 13.89° C | 66% | 1018.8 hPa | 0 mm | - | 0 W/m² | - |
| 1778037978 | 13.89° C | 65% | 1019.3 hPa | 0 mm | - | 0 W/m² | - |
| 1778037674 | 13.89° C | 64% | 1018.7 hPa | 0 mm | - | 0 W/m² | - |
| 1778037372 | 13.89° C | 64% | 1018.6 hPa | 0 mm | - | 0 W/m² | - |
| 1778037068 | 14.44° C | 63% | 1018.9 hPa | 0 mm | - | 0 W/m² | - |
| 1778036767 | 14.44° C | 63% | 1018.5 hPa | 0 mm | - | 0 W/m² | - |
| 1778036464 | 14.44° C | 62% | 1018.5 hPa | 0 mm | - | 0 W/m² | - |
| 1778036161 | 14.44° C | 62% | 1018.6 hPa | 0 mm | - | 0 W/m² | - |
| 1778035856 | 14.44° C | 62% | 1018.3 hPa | 0 mm | - | 0 W/m² | - |
| 1778035554 | 14.44° C | 61% | 1018.1 hPa | 0 mm | - | 0 W/m² | - |
| 1778035250 | 14.44° C | 61% | 1018 hPa | 0 mm | - | 0 W/m² | - |
| 1778034946 | 14.44° C | 61% | 1017.9 hPa | 0 mm | - | 1 W/m² | - |
| 1778034644 | 14.44° C | 61% | 1018 hPa | 0 mm | - | 3 W/m² | - |
| 1778034341 | 14.44° C | 61% | 1017.7 hPa | 0 mm | - | 8 W/m² | - |
| 1778034039 | 14.44° C | 60% | 1017.8 hPa | 0 mm | - | 12 W/m² | - |
| 1778033736 | 15° C | 60% | 1017.9 hPa | 0 mm | - | 17 W/m² | - |
| 1778033433 | 15° C | 60% | 1017.7 hPa | 0 mm | - | 21 W/m² | - |
| 1778033131 | 15° C | 60% | 1018 hPa | 0 mm | - | 26 W/m² | - |
| 1778032828 | 15° C | 60% | 1017.6 hPa | 0 mm | - | 28 W/m² | - |
| 1778032526 | 15° C | 59% | 1017.8 hPa | 0 mm | - | 33 W/m² | - |
| 1778032222 | 15° C | 58% | 1017.6 hPa | 0 mm | - | 48 W/m² | - |
| 1778031920 | 15.56° C | 58% | 1017.5 hPa | 0 mm | - | 47 W/m² | - |
| 1778031615 | 15.56° C | 58% | 1017.5 hPa | 0 mm | - | 48 W/m² | - |
* Rain latest hour (hover to see other rain measurements)
** Current wind speed in m/s (hover to see current wind gust speed)